When you browse on this site, cookies collect data to enhance your experience and personalize the content and advertising you see.
Visit our Privacy Policy to learn more. By continuing to use the site, you agree to this use of cookies and data.
  • în România
  • Lista ţărilor
  • Pe 7 zile
  • Temperatura apei
  • Hartă satelitară
  • Meteo pe hartă
  • Widget-uri
  • user-avatar
    Intrare

    Meteo pe oră la Aspach

    Astăzi, 25 Aprilie, Joi

    Timp Temperatura Precipitaţii Vânt Presiune Umiditate
    00:00 +9°C° 0 mm 1 m/s 728 mmHg 74%
    01:00 +9°C° 0 mm 1 m/s 729 mmHg 74%
    02:00 +8°C° 0 mm 2 m/s 728 mmHg 76%
    03:00 +7°C° 0 mm 2 m/s 728 mmHg 77%
    04:00 +7°C° 0 mm 2 m/s 728 mmHg 78%
    05:00 +8°C° 0 mm 3 m/s 728 mmHg 74%
    06:00 +9°C° 0 mm 3 m/s 728 mmHg 70%
    07:00 +10°C° 0 mm 4 m/s 728 mmHg 66%
    08:00 +12°C° 0 mm 4 m/s 728 mmHg 61%
    09:00 +15°C° 0 mm 4 m/s 729 mmHg 55%
    10:00 +17°C° 0 mm 5 m/s 729 mmHg 49%
    11:00 +20°C° 0 mm 4 m/s 728 mmHg 46%
    12:00 +21°C° 0 mm 4 m/s 728 mmHg 44%
    13:00 +22°C° 0 mm 3 m/s 728 mmHg 41%
    14:00 +24°C° 0 mm 3 m/s 727 mmHg 42%
    15:00 +24°C° 0 mm 3 m/s 727 mmHg 42%
    16:00 +24°C° 0 mm 3 m/s 726 mmHg 43%
    17:00 +22°C° 0 mm 3 m/s 726 mmHg 50%
    18:00 +20°C° 0 mm 2 m/s 726 mmHg 58%
    19:00 +19°C° 0 mm 2 m/s 726 mmHg 66%
    20:00 +17°C° 0 mm 3 m/s 726 mmHg 70%
    21:00 +14°C° 0 mm 3 m/s 726 mmHg 75%
    22:00 +12°C° 0 mm 4 m/s 727 mmHg 80%
    23:00 +11°C° 0 mm 3 m/s 727 mmHg 82%

    Mâine, 26 Aprilie, Vineri

    Timp Temperatura Precipitaţii Vânt Presiune Umiditate
    00:00 +10°C° 0 mm 3 m/s 727 mmHg 84%
    01:00 +9°C° 0 mm 2 m/s 727 mmHg 86%
    02:00 +8°C° 0 mm 2 m/s 727 mmHg 88%
    03:00 +8°C° 0 mm 2 m/s 727 mmHg 91%
    04:00 +8°C° 0 mm 2 m/s 728 mmHg 93%
    05:00 +8°C° 0 mm 2 m/s 728 mmHg 91%
    06:00 +8°C° 0 mm 3 m/s 728 mmHg 88%
    07:00 +9°C° 0 mm 3 m/s 728 mmHg 86%
    08:00 +8°C° 0.1 mm 4 m/s 728 mmHg 86%
    09:00 +8°C° 0.1 mm 4 m/s 729 mmHg 86%
    10:00 +8°C° 0.1 mm 5 m/s 729 mmHg 87%
    11:00 +7°C° 1.7 mm 5 m/s 730 mmHg 88%
    12:00 +7°C° 1.7 mm 5 m/s 731 mmHg 90%
    13:00 +6°C° 1.7 mm 5 m/s 731 mmHg 92%
    14:00 +7°C° 0.5 mm 5 m/s 732 mmHg 89%
    15:00 +8°C° 0.5 mm 5 m/s 733 mmHg 86%
    16:00 +10°C° 0.5 mm 4 m/s 733 mmHg 83%
    17:00 +8°C° 0.2 mm 4 m/s 733 mmHg 84%
    18:00 +8°C° 0.2 mm 4 m/s 734 mmHg 86%
    19:00 +9°C° 0.2 mm 3 m/s 734 mmHg 87%
    20:00 +8°C° 0.1 mm 3 m/s 734 mmHg 87%
    21:00 +8°C° 0.1 mm 3 m/s 734 mmHg 87%
    22:00 +8°C° 0.1 mm 3 m/s 735 mmHg 87%
    23:00 +7°C° 0.1 mm 2 m/s 735 mmHg 87%

    Poimâine, 27 Aprilie, Sâmbătă

    Timp Temperatura Precipitaţii Vânt Presiune Umiditate
    00:00 +7°C° 0.1 mm 2 m/s 734 mmHg 87%
    01:00 +7°C° 0.1 mm 2 m/s 734 mmHg 87%
    02:00 +7°C° 0 mm 2 m/s 734 mmHg 87%
    03:00 +6°C° 0 mm 2 m/s 734 mmHg 87%
    04:00 +6°C° 0 mm 2 m/s 734 mmHg 87%
    05:00 +7°C° 0 mm 2 m/s 734 mmHg 86%
    06:00 +7°C° 0 mm 2 m/s 734 mmHg 85%
    07:00 +8°C° 0 mm 3 m/s 734 mmHg 84%
    08:00 +8°C° 0.1 mm 3 m/s 734 mmHg 83%
    09:00 +8°C° 0.1 mm 4 m/s 734 mmHg 82%
    10:00 +10°C° 0.1 mm 4 m/s 734 mmHg 82%
    11:00 +10°C° 0.4 mm 4 m/s 733 mmHg 81%
    12:00 +10°C° 0.4 mm 4 m/s 733 mmHg 80%
    13:00 +10°C° 0.4 mm 4 m/s 733 mmHg 79%
    14:00 +9°C° 0.6 mm 5 m/s 733 mmHg 80%
    15:00 +10°C° 0.6 mm 5 m/s 733 mmHg 80%
    16:00 +10°C° 0.6 mm 6 m/s 733 mmHg 80%
    17:00 +9°C° 0.2 mm 5 m/s 733 mmHg 81%
    18:00 +8°C° 0.2 mm 4 m/s 733 mmHg 83%
    19:00 +8°C° 0.2 mm 3 m/s 733 mmHg 84%
    20:00 +7°C° 0 mm 3 m/s 733 mmHg 86%
    21:00 +7°C° 0 mm 3 m/s 733 mmHg 88%
    22:00 +6°C° 0 mm 2 m/s 733 mmHg 90%
    23:00 +5°C° 0 mm 2 m/s 733 mmHg 91%

    28 Aprilie, Duminică

    Timp Temperatura Precipitaţii Vânt Presiune Umiditate
    00:00 +5°C° 0 mm 2 m/s 733 mmHg 91%
    01:00 +5°C° 0 mm 2 m/s 733 mmHg 92%
    02:00 +5°C° 0 mm 2 m/s 733 mmHg 91%
    03:00 +5°C° 0 mm 2 m/s 733 mmHg 91%
    04:00 +5°C° 0 mm 2 m/s 734 mmHg 90%
    05:00 +6°C° 0 mm 2 m/s 734 mmHg 89%
    06:00 +6°C° 0 mm 2 m/s 734 mmHg 87%
    07:00 +7°C° 0 mm 1 m/s 734 mmHg 85%
    08:00 +9°C° 0 mm 1 m/s 734 mmHg 78%
    09:00 +10°C° 0 mm 1 m/s 734 mmHg 71%
    10:00 +12°C° 0 mm 1 m/s 735 mmHg 64%
    11:00 +12°C° 0 mm 1 m/s 735 mmHg 61%
    12:00 +13°C° 0 mm 1 m/s 734 mmHg 58%
    13:00 +14°C° 0 mm 1 m/s 734 mmHg 56%
    14:00 +14°C° 0.1 mm 1 m/s 734 mmHg 55%
    15:00 +14°C° 0.1 mm 1 m/s 734 mmHg 55%
    16:00 +15°C° 0.1 mm 2 m/s 734 mmHg 54%
    17:00 +14°C° 0.1 mm 2 m/s 734 mmHg 60%
    18:00 +13°C° 0.1 mm 1 m/s 734 mmHg 66%
    19:00 +11°C° 0.1 mm 1 m/s 734 mmHg 72%
    20:00 +10°C° 0 mm 1 m/s 735 mmHg 76%
    21:00 +9°C° 0 mm 1 m/s 735 mmHg 80%
    22:00 +7°C° 0 mm 0 m/s 735 mmHg 83%
    23:00 +6°C° 0 mm 0 m/s 735 mmHg 84%

    29 Aprilie, Luni

    Timp Temperatura Precipitaţii Vânt Presiune Umiditate
    00:00 +6°C° 0 mm 0 m/s 736 mmHg 85%
    01:00 +6°C° 0 mm 0 m/s 736 mmHg 86%
    02:00 +5°C° 0 mm 0 m/s 736 mmHg 87%
    03:00 +5°C° 0 mm 0 m/s 736 mmHg 87%
    04:00 +5°C° 0 mm 0 m/s 736 mmHg 88%
    05:00 +6°C° 0 mm 0 m/s 736 mmHg 85%
    06:00 +8°C° 0 mm 1 m/s 736 mmHg 82%
    07:00 +9°C° 0 mm 1 m/s 736 mmHg 80%
    08:00 +11°C° 0 mm 1 m/s 736 mmHg 73%
    09:00 +13°C° 0 mm 2 m/s 736 mmHg 67%
    10:00 +14°C° 0 mm 2 m/s 736 mmHg 60%
    11:00 +14°C° 0.2 mm 3 m/s 735 mmHg 60%
    12:00 +14°C° 0.2 mm 3 m/s 735 mmHg 60%
    13:00 +16°C° 0.2 mm 3 m/s 734 mmHg 59%
    14:00 +14°C° 0.4 mm 3 m/s 734 mmHg 65%
    15:00 +13°C° 0.4 mm 3 m/s 734 mmHg 71%
    16:00 +13°C° 0.4 mm 3 m/s 734 mmHg 76%
    17:00 +13°C° 0.3 mm 2 m/s 734 mmHg 80%
    18:00 +12°C° 0.3 mm 2 m/s 734 mmHg 84%
    19:00 +10°C° 0.3 mm 2 m/s 734 mmHg 88%
    20:00 +10°C° 0.3 mm 2 m/s 734 mmHg 90%
    21:00 +9°C° 0.3 mm 2 m/s 734 mmHg 91%
    22:00 +10°C° 0.3 mm 1 m/s 734 mmHg 93%
    23:00 +9°C° 0.3 mm 2 m/s 734 mmHg 93%

    30 Aprilie, Marţi

    Timp Temperatura Precipitaţii Vânt Presiune Umiditate
    00:00 +9°C° 0.3 mm 2 m/s 734 mmHg 94%
    01:00 +8°C° 0.3 mm 2 m/s 734 mmHg 95%
    02:00 +8°C° 0.5 mm 2 m/s 734 mmHg 95%
    03:00 +8°C° 0.5 mm 2 m/s 733 mmHg 95%
    04:00 +8°C° 0.5 mm 2 m/s 733 mmHg 96%
    05:00 +8°C° 0.2 mm 2 m/s 733 mmHg 96%
    06:00 +9°C° 0.2 mm 2 m/s 733 mmHg 96%
    07:00 +9°C° 0.2 mm 2 m/s 733 mmHg 96%
    08:00 +10°C° 0.1 mm 2 m/s 734 mmHg 93%
    09:00 +10°C° 0.1 mm 2 m/s 734 mmHg 91%
    10:00 +11°C° 0.1 mm 3 m/s 734 mmHg 89%
    11:00 +12°C° 0.2 mm 3 m/s 734 mmHg 84%
    12:00 +13°C° 0.2 mm 3 m/s 734 mmHg 79%
    13:00 +14°C° 0.2 mm 3 m/s 734 mmHg 75%
    14:00 +14°C° 0.4 mm 3 m/s 733 mmHg 74%
    15:00 +16°C° 0.4 mm 2 m/s 733 mmHg 73%
    16:00 +16°C° 0.4 mm 2 m/s 733 mmHg 73%
    17:00 +15°C° 0.3 mm 2 m/s 733 mmHg 76%
    18:00 +14°C° 0.3 mm 2 m/s 733 mmHg 80%
    19:00 +13°C° 0.3 mm 2 m/s 733 mmHg 84%
    20:00 +12°C° 0 mm 2 m/s 733 mmHg 87%
    21:00 +10°C° 0 mm 2 m/s 733 mmHg 89%
    22:00 +8°C° 0 mm 2 m/s 733 mmHg 92%
    23:00 +8°C° 0 mm 2 m/s 733 mmHg 92%
    Arată mai mult